Weather History for 10739 - March, 2014

Change the Weather History Date:

Saturday, March 29, 2014

  Actual Average Record
Temperature  
Mean Temperature 52 °F -  
Max Temperature 67 °F 56 °F - ()
Min Temperature 38 °F 38 °F - ()
Degree Days  
Heating Degree Days 12    
Growing Degree Days 2 (Base 50)    
Moisture  
Dew Point 34 °F    
Average Humidity 43    
Maximum Humidity 77    
Minimum Humidity 15    
Precipitation  
Precipitation 0.00 in - - ()
Sea Level Pressure  
Sea Level Pressure 30.09 in    
Wind  
Wind Speed 5 mph ()    
Max Wind Speed 13 mph    
Max Gust Speed -    
Visibility 11.0 miles    
Events      
T = Trace of Precipitation, MM = Missing Value Source: Averaged Metar Reports

Daily Weather History Graph

Daily Weather History Graph

Search for Another Location

Airport or City:

Trip Planner

Search our weather history database for the weather conditions in past years. The results will help you decide how hot, cold, wet, or windy it might be!

Date:

Astronomy

Mar. 29, 2014 Rise Set
Actual Time 6:07 AM CET 6:49 PM CET
Civil Twilight 5:35 AM CET 7:21 PM CET
Nautical Twilight 4:58 AM CET 7:59 PM CET
Astronomical Twilight 4:18 AM CET 8:39 PM CET
Moon 5:13 AM CET 5:31 PM CET
Length of Visible Light 13h 45m
Length of Day
12h 41m
Waning Crescent, 2% of the Moon is Illuminated
Mar 29
Waning Crescent
Mar 30
New
Apr 7
First Quarter
Apr 15
Full
Apr 22
Last Quarter

Hourly Weather History & Observations

Time (CET) Temp. Dew Point Humidity Pressure Visibility Wind Dir Wind Speed Gust Speed Precip Events Conditions
12:00 AM 48 °F 36 °F 53% 30.11 in 10 mi ENE 4.5 mph - -  
1:00 AM 47 °F 37 °F 59% 30.12 in 9 mi East 6.7 mph - -  
2:00 AM 47 °F 37 °F 57% 30.12 in 9 mi East 6.7 mph - -  
3:00 AM 44 °F 36 °F 66% 30.12 in 7 mi ENE 4.5 mph - -  
4:00 AM 42 °F 36 °F 71% 30.13 in 7 mi North 2.2 mph - -  
5:00 AM 42 °F 36 °F 72% 30.14 in 7 mi NNE 2.2 mph - -  
6:00 AM 42 °F 36 °F 73% 30.14 in 7 mi ENE 4.5 mph - -  
7:00 AM 40 °F 35 °F 77% 30.16 in 6 mi WNW 2.2 mph - -  
8:00 AM 43 °F 37 °F 71% 30.16 in 6 mi NE 4.5 mph - -  
9:00 AM 48 °F 39 °F 62% 30.15 in 6 mi ESE 4.5 mph - -  
10:00 AM 52 °F 38 °F 48% 30.14 in 7 mi ESE 4.5 mph - -  
11:00 AM 57 °F 38 °F 37% 30.12 in 9 mi East 4.5 mph - -  
12:00 PM 62 °F 37 °F 28% 30.09 in 13 mi ESE 4.5 mph - -  
1:00 PM 64 °F 32 °F 19% 30.08 in 17 mi East 8.9 mph - -  
2:00 PM 66 °F 30 °F 15% 30.06 in 19 mi ESE 8.9 mph - -  
3:00 PM 67 °F 30 °F 15% 30.04 in 14 mi ESE 11.2 mph - -  
4:00 PM 66 °F 31 °F 16% 30.02 in 31 mi ESE 11.2 mph - -  
5:00 PM 65 °F 29 °F 15% 30.02 in 19 mi ESE 13.4 mph - -  
6:00 PM 64 °F 29 °F 16% 30.02 in 25 mi SE 8.9 mph - -  
7:00 PM 60 °F 31 °F 22% 30.03 in 19 mi ESE 6.7 mph - -  
8:00 PM 57 °F 32 °F 27% 30.05 in 12 mi East 4.5 mph - -  
9:00 PM 57 °F 33 °F 28% 30.05 in 15 mi East 2.2 mph - -  
10:00 PM 55 °F 34 °F 33% 30.06 in 12 mi NNW 2.2 mph - -  
11:00 PM 51 °F 35 °F 43% 30.06 in 12 mi NE 4.5 mph - -